Hourly Data Report for January 01, 2017

All times are specified in Local Standard Time (LST). Add 1 hour to adjust for Daylight Saving Time where and when it is observed.

ST LEONARD CS
NEW BRUNSWICK

47°09'28.050" N
67°49'55.014" W
245.00 m
810I001
71019
WIY

Download Data

Hourly Data (January 2017)
Hourly Data Report for January 1, 2017
Temp Definition
°C
Dew Point Temp Definition
°C
Rel Hum Definition
%
Wind Dir Definition
10's deg

Wind Spd Definition
km/h
Visibility Definition
km
Stn Press Definition
kPa
Hmdx Definition


Wind Chill Definition


Weather Definition


TIME
00:00 -12.7 -13.7 92 9 12   98.30   -19 LegendNANA
01:00 -12.0 -13.0 93 8 12   98.19   -18 LegendNANA
02:00 -11.1 -12.0 93 8 11   98.13   -17 LegendNANA
03:00 -11.0 -11.9 93 6 9   98.10   -16 LegendNANA
04:00 -10.7 -11.5 94 6 10   98.06   -16 LegendNANA
05:00 -10.0 -10.8 94 6 11   97.97   -16 LegendNANA
06:00 -10.6 -11.4 93 5 9   97.93   -16 LegendNANA
07:00 -12.0 -13.0 92 2 7   97.94   -16 LegendNANA
08:00 -12.9 -14.0 92 2 7   97.95   -17 LegendNANA
09:00 -12.6 -13.7 92 35 5   98.00   -16 LegendNANA
10:00 -11.8 -12.9 92 3 8   98.06   -17 LegendNANA
11:00 -10.6 -11.8 91 34 4   98.09   -13 LegendNANA
12:00 -8.9 -10.3 90 33 4   98.07   -11 LegendNANA
13:00 -8.6 -9.8 91 29 5   98.07   -11 LegendNANA
14:00 -8.1 -9.4 91 29 4   98.12   -10 LegendNANA
15:00 -8.4 -9.5 92 25 7   98.27   -12 LegendNANA
16:00 -9.0 -10.1 91 29 10   98.41   -14 LegendNANA
17:00 -9.8 -10.8 92 28 9   98.56   -15 LegendNANA
18:00 -8.7 -9.6 93 27 11   98.75   -14 LegendNANA
19:00 -8.3 -9.3 92 28 9   98.90   -13 LegendNANA
20:00 -7.3 -8.4 92 31 10   99.04   -12 LegendNANA
21:00 -7.4 -8.6 91 30 13   99.15   -13 LegendNANA
22:00 -7.2 -8.5 91 31 13   99.24   -13 LegendNANA
23:00 -7.6 -8.7 92 32 10   99.35   -12 LegendNANA

Notes on Data Quality.

Legend

  • E = Estimated
  • M = Missing
  • NA = Not Available
  • ‡ = Partner data that is not subject to review by the National Climate Archives
Date modified: